Starlink 31991

operational
NORAD ID: 59963 Int'l Des: 2024-107 Owner: SPXS Country: US Constellation: starlink
LEOCIRCULAR

关于 Starlink 31991

正在加载描述...

实时位置

正在加载3D地球...

即将过境

高度历史

Altitude vs Time

uPlot chart will show altitude changes over time

两行轨道根数

1 59963U 24107U 25260.97743973 .00001319 00000-0 56655-4 0 9995
2 59963 53.1606 147.7492 0001184 104.0984 256.0149 15.30194469 73356
Epoch: Sep 17, 2025 • Age: 20 hours

当前状态

高度 484.0 km
速度 7.62 km/s
星下点 -27.29°S, 172.03°W
发射日期 Jun 5, 2024
运行时间 1.2 years
类型 internet

技术详情

分类 Payload
质量 730.00 kg
干质量 700.00 kg
总质量 730.00 kg
长度 0.30 m
直径 4.10 m
跨度 29.00 m
形状 Box + pan
制造商 SPXS
平台类型 Starlink V2M
阶段状态 In Orbit
所有者/国家 SPXS/US

大型星座

Loading constellations...